timestamp,surface_pressure_avg,surface_temp_avg,battery_voltage,lat,long
2021-11-24 00:09:01+00:00,269.5547,7.9,12.65,47.84626,-54.09684
2021-11-24 00:19:00+00:00,282.8497,7.9,12.65,47.84626,-54.09684
2021-11-24 00:29:00+00:00,285.6863,7.9,12.65,47.84626,-54.09684
2021-11-24 00:39:00+00:00,279.608,7.9,12.65,47.84626,-54.09684
2021-11-24 00:49:00+00:00,283.8214,7.9,12.65,47.84626,-54.09684
2021-11-24 00:59:00+00:00,294.7397,7.9,12.65,47.84626,-54.09684
2021-11-24 01:09:00+00:00,300.1996,7.9,12.65,47.84626,-54.09684
2021-11-24 01:19:01+00:00,303.823,7.9,12.65,47.84626,-54.09684
2021-11-24 01:29:01+00:00,303.973,7.9,12.65,47.84626,-54.09684
2021-11-24 01:39:01+00:00,305.653,7.9,12.65,47.84626,-54.09684
2021-11-24 01:49:01+00:00,313.0347,7.9,12.65,47.84626,-54.09684
2021-11-24 01:59:01+00:00,325.1829,7.9,12.65,47.84626,-54.09684
2021-11-24 02:09:01+00:00,325.0197,7.9,12.65,47.84626,-54.09684
2021-11-24 02:19:00+00:00,322.228,7.9,12.65,47.84626,-54.09684
2021-11-24 02:29:00+00:00,323.0613,7.9,12.65,47.84626,-54.09684
2021-11-24 02:39:00+00:00,324.6829,7.9,12.65,47.84626,-54.09684
2021-11-24 02:49:00+00:00,315.653,7.9,12.65,47.84626,-54.09684
2021-11-24 02:59:00+00:00,305.2363,7.9,12.65,47.84626,-54.09684
2021-11-24 03:09:00+00:00,305.4497,7.9,12.65,47.84626,-54.09684
2021-11-24 03:19:01+00:00,300.348,7.9,12.57,47.84626,-54.09684
2021-11-24 03:29:01+00:00,287.3846,7.9,12.57,47.84626,-54.09684
2021-11-24 03:39:01+00:00,285.1064,7.9,12.57,47.84626,-54.09684
2021-11-24 03:49:01+00:00,295.7514,7.9,12.57,47.84626,-54.09684
2021-11-24 03:59:01+00:00,294.603,7.9,12.57,47.84626,-54.09684
2021-11-24 04:09:01+00:00,282.5464,7.9,12.57,47.84626,-54.09684
2021-11-24 04:19:01+00:00,283.7697,7.9,12.57,47.84626,-54.09684
2021-11-24 04:29:01+00:00,282.5731,7.9,12.57,47.84626,-54.09684
2021-11-24 04:39:01+00:00,272.3797,7.9,12.57,47.84626,-54.09684
2021-11-24 04:49:01+00:00,270.2381,7.9,12.57,47.84626,-54.09684
2021-11-24 04:59:01+00:00,271.3481,7.9,12.57,47.84626,-54.09684
2021-11-24 05:09:01+00:00,264.6331,7.9,12.57,47.84626,-54.09684
2021-11-24 05:19:01+00:00,255.8281,7.9,12.57,47.84626,-54.09684
2021-11-24 05:29:01+00:00,256.0547,7.9,12.57,47.84626,-54.09684
2021-11-24 05:39:01+00:00,252.9014,7.9,12.57,47.84626,-54.09684
2021-11-24 05:49:01+00:00,241.8147,7.9,12.57,47.84626,-54.09684
2021-11-24 05:59:01+00:00,240.8897,7.9,12.57,47.84626,-54.09684
2021-11-24 06:09:01+00:00,248.1448,7.9,12.57,47.84626,-54.09684
2021-11-24 06:19:01+00:00,242.9531,7.9,12.57,47.84626,-54.09684
2021-11-24 06:29:01+00:00,229.3181,7.9,12.57,47.84626,-54.09684
2021-11-24 06:39:01+00:00,222.2114,7.9,12.57,47.84626,-54.09684
2021-11-24 06:49:01+00:00,219.6314,7.9,12.57,47.84626,-54.09684
2021-11-24 06:59:01+00:00,212.1498,7.9,12.57,47.84626,-54.09684
2021-11-24 07:09:01+00:00,206.2314,7.9,12.57,47.84626,-54.09684
2021-11-24 07:19:00+00:00,207.2281,7.9,12.57,47.84626,-54.09684
2021-11-24 07:29:00+00:00,204.2881,7.9,12.57,47.84626,-54.09684
2021-11-24 07:39:00+00:00,202.1048,7.9,12.57,47.84626,-54.09684
2021-11-24 07:49:00+00:00,207.7731,7.9,12.57,47.84626,-54.09684
2021-11-24 07:59:00+00:00,213.7198,7.9,12.57,47.84626,-54.09684
2021-11-24 08:09:00+00:00,208.4048,7.9,12.57,47.84626,-54.09684
2021-11-24 08:19:00+00:00,200.8081,7.9,12.57,47.84626,-54.09684
2021-11-24 08:29:00+00:00,206.8098,7.9,12.57,47.84626,-54.09684
2021-11-24 08:39:00+00:00,217.2615,7.9,12.57,47.84626,-54.09684
2021-11-24 08:49:00+00:00,217.2664,7.9,12.57,47.84626,-54.09684
2021-11-24 08:59:00+00:00,221.9764,7.9,12.57,47.84626,-54.09684
2021-11-24 09:09:00+00:00,230.1231,7.9,12.57,47.84626,-54.09684
2021-11-24 09:19:01+00:00,231.3881,7.9,12.57,47.84626,-54.09684
2021-11-24 09:29:01+00:00,230.5864,7.9,12.57,47.84626,-54.09684
2021-11-24 09:39:01+00:00,238.9464,7.9,12.57,47.84626,-54.09684
2021-11-24 09:49:01+00:00,250.3548,7.9,12.57,47.84626,-54.09684
2021-11-24 09:59:01+00:00,252.6381,7.9,12.57,47.84626,-54.09684
2021-11-24 10:09:01+00:00,254.5314,7.9,12.57,47.84626,-54.09684
2021-11-24 10:19:00+00:00,265.743,7.9,12.57,47.84626,-54.09684
2021-11-24 10:29:00+00:00,272.3131,7.9,12.57,47.84626,-54.09684
2021-11-24 10:39:00+00:00,268.873,7.9,12.57,47.84626,-54.09684
2021-11-24 10:49:00+00:00,269.5864,7.9,12.57,47.84626,-54.09684
2021-11-24 10:59:00+00:00,278.1931,7.88,12.57,47.84626,-54.09684
2021-11-24 11:09:00+00:00,275.1298,7.9,12.57,47.84626,-54.09684
2021-11-24 11:19:00+00:00,272.1114,7.69,12.57,47.84626,-54.09684
2021-11-24 11:29:00+00:00,278.6531,7.79,12.57,47.84626,-54.09684
2021-11-24 11:39:00+00:00,282.673,7.9,12.57,47.84626,-54.09684
2021-11-24 11:49:00+00:00,280.5947,7.9,12.57,47.84626,-54.09684
2021-11-24 11:59:00+00:00,287.7397,7.9,12.57,47.84626,-54.09684
2021-11-24 12:09:00+00:00,295.3813,7.9,12.57,47.84626,-54.09684
2021-11-24 12:19:00+00:00,307.268,7.9,12.65,47.84626,-54.09684
2021-11-24 12:29:00+00:00,316.7513,7.9,12.65,47.84626,-54.09684
2021-11-24 12:39:00+00:00,325.9396,7.9,12.65,47.84626,-54.09684
2021-11-24 12:49:00+00:00,326.1246,7.9,12.65,47.84626,-54.09684
2021-11-24 12:59:00+00:00,331.4847,7.9,12.65,47.84626,-54.09684
2021-11-24 13:09:00+00:00,334.0896,7.91,12.65,47.84626,-54.09684
2021-11-24 13:19:00+00:00,336.548,7.93,12.65,47.84626,-54.09684
2021-11-24 13:29:00+00:00,342.478,7.92,12.65,47.84626,-54.09684
2021-11-24 13:39:00+00:00,349.92800000000005,7.92,12.65,47.84626,-54.09684
2021-11-24 13:49:00+00:00,348.3213,7.93,12.65,47.84626,-54.09684
2021-11-24 13:59:00+00:00,350.4346,7.9,12.65,47.84626,-54.09684
2021-11-24 14:09:00+00:00,357.2396,7.92,12.65,47.84626,-54.09684
2021-11-24 14:19:00+00:00,364.5296,7.93,12.65,47.84626,-54.09684
2021-11-24 14:29:00+00:00,359.6946,7.93,12.65,47.84626,-54.09684
2021-11-24 14:39:00+00:00,359.5396,7.95,12.65,47.84626,-54.09684
2021-11-24 14:49:00+00:00,365.5579,7.94,12.65,47.84626,-54.09684
2021-11-24 14:59:00+00:00,362.5262,7.96,12.65,47.84626,-54.09684
2021-11-24 15:09:00+00:00,355.1429,7.95,12.65,47.84626,-54.09684
2021-11-24 15:19:00+00:00,356.6362,7.94,12.65,47.84626,-54.09684
2021-11-24 15:29:00+00:00,354.8696,7.94,12.65,47.84626,-54.09684
2021-11-24 15:39:00+00:00,350.8329,7.94,12.65,47.84626,-54.09684
2021-11-24 15:49:00+00:00,348.8663,7.94,12.65,47.84626,-54.09684
2021-11-24 15:59:00+00:00,350.6096,7.95,12.65,47.84626,-54.09684
2021-11-24 16:09:00+00:00,348.603,7.94,12.65,47.84626,-54.09684
2021-11-24 16:19:00+00:00,346.6213,7.93,12.73,47.84626,-54.09684
2021-11-24 16:29:00+00:00,345.2613,7.95,12.73,47.84626,-54.09684
2021-11-24 16:39:00+00:00,342.67800000000005,7.94,12.73,47.84626,-54.09684
2021-11-24 16:49:00+00:00,340.9631,7.94,12.73,47.84626,-54.09684
2021-11-24 16:59:00+00:00,335.6212,7.96,12.73,47.84626,-54.09684
2021-11-24 17:09:00+00:00,323.1447,7.97,12.73,47.84626,-54.09684
2021-11-24 17:19:01+00:00,315.7681,7.97,12.89,47.84626,-54.09684
2021-11-24 17:29:01+00:00,310.988,7.97,12.89,47.84626,-54.09684
2021-11-24 17:39:01+00:00,305.7364,7.97,12.89,47.84626,-54.09684
2021-11-24 17:49:01+00:00,301.7813,7.96,12.89,47.84626,-54.09684
2021-11-24 17:59:01+00:00,300.2764,7.96,12.89,47.84626,-54.09684
2021-11-24 18:09:01+00:00,291.608,7.95,12.89,47.84626,-54.09684
2021-11-24 18:19:00+00:00,278.0914,7.9,13.05,47.84626,-54.09684
2021-11-24 18:29:00+00:00,271.3814,7.91,13.05,47.84626,-54.09684
2021-11-24 18:39:00+00:00,263.788,7.9,13.05,47.84626,-54.09684
2021-11-24 18:49:00+00:00,256.2814,7.9,13.05,47.84626,-54.09684
2021-11-24 18:59:00+00:00,248.8847,7.9,13.05,47.84626,-54.09684
2021-11-24 19:09:00+00:00,243.9247,7.93,13.05,47.84626,-54.09684
2021-11-24 19:19:00+00:00,238.5064,7.96,12.89,47.84626,-54.09684
2021-11-24 19:29:00+00:00,230.0831,7.98,12.89,47.84626,-54.09684
2021-11-24 19:39:00+00:00,225.9664,7.99,12.89,47.84626,-54.09684
2021-11-24 19:49:00+00:00,224.6214,8.0,12.89,47.84626,-54.09684
2021-11-24 19:59:00+00:00,218.6481,8.0,12.89,47.84626,-54.09684
2021-11-24 20:09:00+00:00,213.8281,8.0,12.89,47.84626,-54.09684
2021-11-24 20:19:00+00:00,218.8548,8.0,12.73,47.84626,-54.09684
2021-11-24 20:29:00+00:00,223.3014,8.0,12.73,47.84626,-54.09684
2021-11-24 20:39:00+00:00,221.7831,8.0,12.73,47.84626,-54.09684
2021-11-24 20:49:00+00:00,220.9498,8.0,12.73,47.84626,-54.09684
2021-11-24 20:59:00+00:00,222.6098,8.0,12.73,47.84626,-54.09684
2021-11-24 21:09:00+00:00,228.0782,8.0,12.73,47.84626,-54.09684
2021-11-24 21:19:00+00:00,238.5298,8.0,12.65,47.84626,-54.09684
2021-11-24 21:29:00+00:00,243.6497,8.0,12.65,47.84626,-54.09684
2021-11-24 21:39:00+00:00,241.718,8.0,12.65,47.84626,-54.09684
2021-11-24 21:49:00+00:00,241.6081,8.0,12.65,47.84626,-54.09684
2021-11-24 21:59:00+00:00,249.5715,8.0,12.65,47.84626,-54.09684
2021-11-24 22:09:00+00:00,253.4964,8.0,12.65,47.84626,-54.09684
2021-11-24 22:19:00+00:00,250.3081,8.0,12.65,47.84626,-54.09684
2021-11-24 22:29:00+00:00,254.4414,8.0,12.65,47.84626,-54.09684
2021-11-24 22:39:00+00:00,262.4831,8.0,12.65,47.84626,-54.09684
2021-11-24 22:49:00+00:00,261.4948,8.0,12.65,47.84626,-54.09684
2021-11-24 22:59:00+00:00,254.398,8.0,12.65,47.84626,-54.09684
2021-11-24 23:09:00+00:00,259.538,7.99,12.65,47.84626,-54.09684
2021-11-24 23:19:00+00:00,268.7914,8.0,12.65,47.84626,-54.09684
2021-11-24 23:29:00+00:00,265.308,8.0,12.65,47.84626,-54.09684
2021-11-24 23:39:00+00:00,259.5131,7.99,12.65,47.84626,-54.09684
2021-11-24 23:49:00+00:00,268.6431,7.98,12.65,47.84626,-54.09684
2021-11-24 23:59:00+00:00,276.0697,8.0,12.65,47.84626,-54.09684
